Lid_Strength_Index
-1 -1 -1 -1 -2 -1 -1 -1 -1 -0 0 0 1 1 -0 -1 -0 0 4 1 0 -1 -0 1 3 4 5 6 5 7 12 13 12 11 10 7 8 7 6 6 6 5 6 4 2
-1 -1 -1 -1 -2 -1 -1 -1 -1 -1 -0 1 0 0 1 -0 1 3 -1 -2 -2 -2 1 3 4 4 7 7 7 9 12 11 8 9 9 8 7 7 7 7 7 6 4 3 3
-1 -1 -1 -1 -2 -2 -2 -1 -1 -1 -0 0 0 0 1 1 4 4 -2 -2 -2 -2 1 2 3 4 8 8 8 8 11 8 8 7 7 7 7 7 8 9 7 7 6 4 4
-1 -1 -1 -1 -2 -2 -2 -1 -1 -2 -2 -0 0 0 1 2 12 2 -0 -2 -2 -1 1 3 4 7 9 9 7 10 7 7 7 6 7 7 6 8 8 8 5 4 4 4 4
-1 -1 -1 -1 -1 -2 -2 -2 -1 -1 -2 -2 -1 0 1 6 7 2 0 -1 -1 1 3 4 6 7 9 9 8 9 8 7 6 6 7 6 8 8 8 6 6 5 5 5 5
-1 -1 -1 -1 -1 -2 -2 -2 -2 -1 -2 -2 -2 -1 3 10 3 0 1 2 1 2 3 3 5 5 7 8 10 8 8 7 7 7 7 8 8 8 7 6 6 5 5 5 5
-2 -1 -1 -1 -1 -1 -2 -1 -2 -1 -2 -2 -1 0 4 6 3 2 1 2 2 2 5 3 3 5 7 9 7 8 10 9 9 8 8 7 10 9 7 7 6 6 6 5 5
-2 -1 -1 -1 -1 -1 -1 -1 -1 -1 -2 -2 -2 2 6 1 1 2 2 2 1 0 2 2 3 5 7 7 8 10 11 13 9 8 8 8 13 8 6 7 7 7 7 6 6
-2 -1 -1 -1 -1 -1 -1 -1 -1 -1 -2 -2 1 4 7 1 3 1 2 3 2 2 2 1 3 7 7 11 13 13 17 15 13 9 9 9 13 9 8 8 7 8 7 7 7
-2 -2 -1 -1 -1 -1 -1 -1 -1 -0 -0 0 1 6 5 6 3 2 2 1 4 4 5 6 7 10 11 14 18 16 16 15 15 13 10 11 12 10 9 9 9 9 9 9 8
-2 -2 -1 -1 -1 -1 -1 1 4 5 3 6 6 6 5 4 2 3 2 3 4 6 10 8 12 13 11 10 12 13 15 15 14 12 12 12 13 11 10 10 10 10 9 9 8
-2 -2 -1 -1 -1 -1 0 4 4 3 8 4 4 4 4 3 7 5 2 7 8 11 9 11 13 10 8 9 10 11 13 15 13 10 11 12 13 11 11 11 9 9 9 8 9
-1 -2 -1 -1 -1 0 3 3 1 1 8 7 5 6 5 4 7 8 4 6 9 10 11 12 11 8 9 10 11 12 13 13 13 11 11 12 15 13 11 10 10 9 8 8 8
-2 -2 -1 -1 2 2 4 1 1 1 12 11 8 6 5 5 8 4 3 6 8 11 10 11 8 9 10 11 10 14 10 10 11 13 17 12 20 15 13 12 11 10 10 9 9
-1 -2 -2 -1 3 5 3 2 1 3 20 10 8 3 4 7 7 7 3 6 10 10 10 12 11 11 12 11 9 12 9 10 11 13 15 14 17 16 13 14 12 11 10 9 9
-1 -1 -1 0 3 1 2 2 5 13 19 13 8 9 9 8 8 7 7 5 7 9 10 11 9 9 9 9 8 8 11 11 12 14 18 15 15 18 15 13 12 11 9 8 9
-1 -1 -1 0 5 -0 2 7 15 18 11 13 12 10 10 11 10 9 10 11 12 15 15 12 11 10 9 11 9 10 13 19 20 20 20 15 15 15 13 11 11 10 10 9 9
-1 -1 -0 0 -0 -0 3 11 17 14 14 9 10 10 12 10 11 10 11 13 10 12 14 15 17 11 9 11 12 12 13 17 22 21 19 15 18 16 11 10 10 9 9 9 10
-1 2 3 1 -0 0 8 15 15 13 12 11 11 13 13 11 11 11 12 12 10 10 14 15 15 10 9 9 9 13 15 11 16 18 19 17 16 12 11 11 10 10 9 10 10
4 4 4 1 1 3 10 13 12 10 11 10 14 12 15 13 13 12 12 10 11 9 10 12 16 11 10 9 10 11 10 16 15 21 24 19 18 17 14 12 10 10 9 9 9
5 8 2 1 3 8 13 12 11 10 10 11 13 13 12 13 12 13 13 10 9 9 8 10 12 14 11 12 13 12 13 13 13 16 21 23 20 14 12 11 11 10 9 9 9
7 11 2 1 10 12 13 11 9 9 9 11 11 12 12 11 12 13 13 11 7 8 11 9 12 16 14 11 10 10 12 12 16 18 16 17 18 12 12 12 10 10 9 8 9
9 8 2 3 15 18 12 12 10 11 10 11 12 11 11 12 14 11 11 8 7 8 10 9 13 17 16 13 11 12 11 11 12 13 17 19 18 11 10 12 12 12 11 10 10
9 12 8 6 8 14 18 15 14 9 10 10 11 11 12 13 12 12 11 9 7 8 7 7 12 14 16 15 13 15 13 12 12 17 16 15 15 12 12 12 11 11 11 10 9
9 12 12 11 11 13 11 11 12 15 9 9 12 12 11 14 13 12 11 9 8 7 8 9 14 13 12 12 12 12 13 13 14 13 16 13 14 12 10 11 10 10 11 11 10
12 13 12 17 11 10 12 16 12 13 11 11 12 11 11 14 12 14 12 12 11 9 10 9 14 13 14 12 12 14 12 12 12 12 12 12 12 9 9 10 11 9 9 9 9
7 7 10 12 13 15 14 14 12 10 10 9 10 11 11 11 10 8 9 10 10 12 11 11 13 14 17 13 13 16 13 12 12 11 11 14 11 8 9 8 8 8 7 7 8